Tracking 29088 objects as of 14-Jul-2024
HD Live streaming from Space Station
objects crossing your sky now

COSMOS 1275 DEB

Track COSMOS 1275 DEB now!
10-day predictions


NORAD ID: 13020
Int'l Code: 1981-053ES
Perigee: 893.0 km
Apogee: 1,060.7 km
Inclination: 82.7 °
Period: 104.5 minutes
Semi major axis: 7347 km
RCS: 0.0175 m2 (small)
Launch date: June 4, 1981
Source: Commonwealth of Independent States (former USSR) (CIS)
Launch site: PLESETSK MISSILE AND SPACE COMPLEX (PKMTR)

Note: This is SATELLITE DEBRIS
Your satellite tracking list
Your tracking list is empty




NASA's NSSDC Master Catalog

Two Line Element Set (TLE):
1 13020U 81053ES  24195.86556014  .00000872  00000-0  81007-3 0  9995
2 13020  82.6904  45.1999 0114128 322.3377  50.0276 13.78364548133431
Source of the keplerian elements: AFSPC